Location: Newark
(47.5833°N, 8.1500°E)
Time: 23:13:06
(UTC+00:00)

Vanguard 1 - Pass Details

Date: 04 November 2020
Orbit: 650 x 3833 km, 34.2° (Epoch: 29 November)

Event Time Altitude Azimuth Distance (km) Brightness Sun altitude
Rises 11:39:39 0° 245° (WSW) 6,909 14.8 26.5°
Reaches altitude 10° 11:43:54 10° 241° (WSW) 6,202 14.8 26.4°
Maximum altitude 12:04:30 55° 171° (S) 4,296 14.4 25.7°
Drops below altitude 10° 12:25:25 10° 102° (ESE) 6,293 14.2 24.7°
Sets 12:29:45 0° 98° (E) 7,013 14.3 24.4°
